TimePDT,TemperatureF,Dew PointF,Humidity,Sea Level PressureIn,VisibilityMPH,Wind Direction,Wind SpeedMPH,Gust SpeedMPH,PrecipitationIn,Events,Conditions,WindDirDegrees,DateUTC
12:53 AM,64.9,50.0,58,29.89,10.0,Calm,Calm,-,N/A,,Clear,0,2013-04-29 07:53:00
1:53 AM,64.0,50.0,60,29.88,10.0,SE,3.5,-,N/A,,Clear,130,2013-04-29 08:53:00
2:53 AM,62.1,51.1,67,29.87,10.0,Calm,Calm,-,N/A,,Clear,0,2013-04-29 09:53:00
3:53 AM,61.0,55.0,81,29.88,10.0,WSW,4.6,-,N/A,,Clear,240,2013-04-29 10:53:00
4:53 AM,59.0,53.1,81,29.88,10.0,Calm,Calm,-,N/A,,Clear,0,2013-04-29 11:53:00
5:53 AM,57.9,53.1,84,29.87,10.0,South,3.5,-,N/A,,Clear,180,2013-04-29 12:53:00
6:53 AM,59.0,53.1,81,29.88,10.0,Calm,Calm,-,N/A,,Clear,0,2013-04-29 13:53:00
7:53 AM,63.0,54.0,72,29.90,10.0,Calm,Calm,-,N/A,,Clear,0,2013-04-29 14:53:00
8:53 AM,69.1,55.9,63,29.90,10.0,NW,4.6,-,N/A,,Clear,320,2013-04-29 15:53:00
9:53 AM,73.0,57.0,57,29.90,10.0,NW,6.9,-,N/A,,Clear,310,2013-04-29 16:53:00
10:53 AM,77.0,54.0,45,29.89,10.0,NW,8.1,-,N/A,,Clear,310,2013-04-29 17:53:00
11:53 AM,80.1,50.0,35,29.88,10.0,NW,10.4,-,N/A,,Clear,310,2013-04-29 18:53:00
12:53 PM,84.0,44.1,25,29.86,10.0,WNW,9.2,-,N/A,,Clear,290,2013-04-29 19:53:00
1:53 PM,86.0,44.1,23,29.83,10.0,WNW,10.4,-,N/A,,Clear,290,2013-04-29 20:53:00
2:53 PM,87.1,44.1,22,29.81,10.0,WNW,12.7,-,N/A,,Clear,300,2013-04-29 21:53:00
3:53 PM,82.9,51.1,33,29.79,10.0,WNW,16.1,-,N/A,,Clear,290,2013-04-29 22:53:00
4:53 PM,81.0,51.1,35,29.78,10.0,WNW,15.0,-,N/A,,Clear,300,2013-04-29 23:53:00
5:53 PM,80.1,52.0,38,29.78,10.0,WNW,12.7,-,N/A,,Clear,300,2013-04-30 00:53:00
6:53 PM,73.0,50.0,44,29.77,10.0,NW,11.5,-,N/A,,Clear,320,2013-04-30 01:53:00
7:53 PM,66.9,51.1,57,29.79,10.0,WNW,11.5,-,N/A,,Clear,300,2013-04-30 02:53:00
8:53 PM,63.0,51.1,65,29.81,10.0,NW,9.2,-,N/A,,Clear,310,2013-04-30 03:53:00
9:53 PM,62.1,51.1,67,29.82,10.0,NNW,9.2,-,N/A,,Clear,330,2013-04-30 04:53:00
10:53 PM,60.1,51.1,72,29.82,10.0,NW,6.9,-,N/A,,Clear,320,2013-04-30 05:53:00
11:53 PM,59.0,51.1,75,29.82,10.0,NW,5.8,-,N/A,,Clear,320,2013-04-30 06:53:00